GW5342 Weather Reports


time (UTC)temp
F
wind
direction
speed
knots
gust
knots
rain 1hr
in
rain 24hr
in
rain mn
in
humidity
%
barometer
mb
20260505200021 83 182 2.6 6.1 0.00 0.00 0.00 39 1015.6
20260505195511 83 162 2.6 7.0 0.00 0.00 0.00 40 1015.7
20260505195011 84 205 2.6 7.0 0.00 0.00 0.00 38 1015.7
20260505194007 85 178 2.6 7.8 0.00 0.00 0.00 39 1016.0
20260505193025 86 173 3.5 6.1 0.00 0.00 0.00 38 1016.2
20260505192511 86 167 1.7 7.8 0.00 0.00 0.00 37 1016.3
20260505192009 87 204 2.6 7.8 0.00 0.00 0.00 36 1016.2
20260505191010 87 146 2.6 7.0 0.00 0.00 0.00 36 1016.4
20260505190503 86 190 2.6 7.0 0.00 0.00 0.00 38 1016.4
20260505190019 86 157 1.7 8.7 0.00 0.00 0.00 38 1016.4
20260505185507 86 222 2.6 8.7 0.00 0.00 0.00 37 1016.4
20260505185008 86 184 2.6 7.0 0.00 0.00 0.00 37 1016.7
20260505184526 86 171 3.5 7.0 0.00 0.00 0.00 37 1016.7
20260505184006 86 182 0.9 6.1 0.00 0.00 0.00 39 1016.7
20260505183508 86 167 1.7 5.2 0.00 0.00 0.00 38 1016.7
20260505183025 85 161 1.7 5.2 0.00 0.00 0.00 39 1016.8
20260505182517 85 260 0.9 5.2 0.00 0.00 0.00 38 1016.6
20260505182012 86 235 2.6 5.2 0.00 0.00 0.00 39 1016.6
20260505181527 85 109 0.9 4.3 0.00 0.00 0.00 40 1016.7
20260505181012 85 122 1.7 5.2 0.00 0.00 0.00 38 1016.8
20260505180505 85 174 2.6 5.2 0.00 0.00 0.00 38 1016.9
20260505180030 85 179 1.7 5.2 0.00 0.00 0.00 38 1016.9
20260505175508 86 195 1.7 5.2 0.00 0.00 0.00 38 1017.0
20260505175010 85 182 2.6 7.8 0.00 0.00 0.00 38 1017.1
20260505174544 85 175 0.9 9.6 0.00 0.00 0.00 38 1017.1
20260505174008 85 165 4.3 9.6 0.00 0.00 0.00 38 1017.1
20260505173508 85 185 2.6 8.7 0.00 0.00 0.00 39 1017.1
20260505173028 85 155 0.9 5.2 0.00 0.00 0.00 39 1017.2
20260505172507 85 242 1.7 5.2 0.00 0.00 0.00 38 1017.1
20260505172008 85 240 1.7 5.2 0.00 0.00 0.00 39 1017.2
20260505171526 85 186 2.6 4.3 0.00 0.00 0.00 39 1017.2
20260505171011 85 228 1.7 5.2 0.00 0.00 0.00 39 1017.2
20260505170510 86 246 2.6 5.2 0.00 0.00 0.00 38 1017.2
20260505165509 85 167 1.7 5.2 0.00 0.00 0.00 40 1017.3
20260505165008 85 153 1.7 5.2 0.00 0.00 0.00 40 1017.4
20260505164516 85 171 1.7 5.2 0.00 0.00 0.00 40 1017.6
20260505164007 85 198 2.6 6.1 0.00 0.00 0.00 40 1017.7
20260505162503 84 242 0.9 4.3 0.00 0.00 0.00 41 1017.8
20260505162003 84 174 1.7 3.5 0.00 0.00 0.00 42 1017.9
20260505161004 83 224 1.7 5.2 0.00 0.00 0.00 42 1017.9
20260505160504 83 161 2.6 5.2 0.00 0.00 0.00 41 1018.0
20260505153020 80 242 0.0 7.0 0.00 0.00 0.00 48 1018.3
20260505152004 80 236 1.7 5.2 0.00 0.00 0.00 47 1018.4
20260505151006 79 197 0.9 4.3 0.00 0.00 0.00 49 1018.3
20260505150505 78 146 1.7 4.3 0.00 0.00 0.00 49 1018.4
20260505140503 73 231 1.7 7.8 0.00 0.00 0.00 60 1018.4
20260505125003 64 175 0.0 1.7 0.00 0.00 0.00 74 1018.3
20260505124513 63 247 0.0 1.7 0.00 0.00 0.00 75 1018.2
20260505124007 63 238 0.9 1.7 0.00 0.00 0.00 76 1018.2
20260505123504 62 248 0.0 1.7 0.00 0.00 0.00 77 1018.2
20260505122507 61 248 0.9 1.7 0.00 0.00 0.00 79 1018.2
20260505122008 61 203 0.0 1.7 0.00 0.00 0.00 80 1018.2
20260505121007 59 227 0.0 1.7 0.00 0.00 0.00 81 1018.3
20260505120508 59 238 0.9 1.7 0.00 0.00 0.00 82 1018.2
20260505120022 58 188 0.0 3.5 0.00 0.00 0.00 83 1018.1
20260505115508 57 180 0.0 3.5 0.00 0.00 0.00 84 1018.1
20260505115007 56 205 0.9 1.7 0.00 0.00 0.00 85 1018.0
20260505114007 55 175 0.9 1.7 0.00 0.00 0.00 86 1017.8
20260505113506 55 178 0.0 1.7 0.00 0.00 0.00 86 1017.8
20260505112506 54 160 0.0 1.7 0.00 0.00 0.00 84 1017.7
20260505112007 54 161 0.0 1.7 0.00 0.00 0.00 83 1017.6
20260505111005 54 169 0.0 1.7 0.00 0.00 0.00 82 1017.6
20260505110507 54 163 0.0 1.7 0.00 0.00 0.00 81 1017.5
20260505102008 54 169 0.0 0.0 0.00 0.00 0.00 79 1017.1
20260505101530 54 169 0.0 0.0 0.00 0.00 0.00 79 1017.0
20260505101007 54 169 0.0 0.0 0.00 0.00 0.00 79 1016.9
20260505100505 55 169 0.0 1.7 0.00 0.00 0.00 79 1016.9
20260505100024 55 169 0.0 1.7 0.00 0.00 0.00 79 1016.8
20260505095507 55 169 0.0 0.0 0.00 0.00 0.00 78 1016.8
20260505095011 55 169 0.0 0.0 0.00 0.00 0.00 78 1016.8
20260505094528 55 169 0.0 0.0 0.00 0.00 0.00 78 1016.8
20260505094010 55 169 0.0 0.0 0.00 0.00 0.00 77 1016.7
20260505093035 56 169 0.0 0.9 0.00 0.00 0.00 77 1016.7
20260505092509 56 169 0.0 1.7 0.00 0.00 0.00 77 1016.7
20260505092007 56 169 0.0 1.7 0.00 0.00 0.00 77 1016.7
20260505091512 56 175 0.0 1.7 0.00 0.00 0.00 76 1016.6
20260505091007 56 175 0.0 1.7 0.00 0.00 0.00 76 1016.7
20260505090505 56 185 0.0 0.0 0.00 0.00 0.00 76 1016.6
20260505090019 56 185 0.0 0.0 0.00 0.00 0.00 75 1016.6
20260505085511 56 185 0.0 0.0 0.00 0.00 0.00 75 1016.5
20260505085007 57 185 0.0 1.7 0.00 0.00 0.00 75 1016.4
20260505084524 57 185 0.0 1.7 0.00 0.00 0.00 75 1016.4
20260505084010 57 153 0.0 1.7 0.00 0.00 0.00 75 1016.4
20260505083510 57 167 0.0 1.7 0.00 0.00 0.00 75 1016.3
20260505083031 57 179 0.0 1.7 0.00 0.00 0.00 75 1016.4
20260505082510 57 169 0.0 2.6 0.00 0.00 0.00 74 1016.3
20260505082010 57 184 0.0 2.6 0.00 0.00 0.00 74 1016.3
20260505081530 57 170 0.0 1.7 0.00 0.00 0.00 73 1016.3
20260505081010 57 170 0.0 1.7 0.00 0.00 0.00 73 1016.3
20260505080505 57 170 0.0 1.7 0.00 0.00 0.00 73 1016.3
20260505080018 58 169 0.0 1.7 0.00 0.00 0.00 73 1016.4
20260505075507 58 161 0.0 1.7 0.00 0.00 0.00 72 1016.3
20260505075007 58 161 0.0 1.7 0.00 0.00 0.00 72 1016.3
20260505074524 58 176 0.0 1.7 0.00 0.00 0.00 73 1016.3
20260505074007 58 175 0.0 1.7 0.00 0.00 0.00 73 1016.3
20260505073510 58 171 0.0 2.6 0.00 0.00 0.00 72 1016.3
20260505073025 58 167 0.0 2.6 0.00 0.00 0.00 72 1016.3
20260505072512 58 155 0.0 2.6 0.00 0.00 0.00 72 1016.2
20260505072011 58 169 0.0 1.7 0.00 0.00 0.00 71 1016.3
20260505071525 58 155 0.0 1.7 0.00 0.00 0.00 71 1016.3
20260505071004 58 169 0.0 1.7 0.00 0.00 0.00 71 1016.2
20260505070506 59 168 0.9 1.7 0.00 0.00 0.00 70 1016.2
20260505070014 59 168 0.0 1.7 0.00 0.00 0.00 70 1016.2
20260505065506 59 226 0.0 1.7 0.00 0.00 0.00 70 1016.2
20260505065005 59 180 0.0 1.7 0.00 0.00 0.00 70 1016.2
20260505064520 59 159 0.0 1.7 0.00 0.00 0.00 69 1016.1
20260505064007 59 167 0.0 1.7 0.00 0.00 0.00 69 1016.2
20260505063503 59 184 0.0 1.7 0.00 0.00 0.00 69 1016.2
20260505063004 59 169 0.0 1.7 0.00 0.00 0.00 69 1016.2
20260505062506 60 164 0.0 1.7 0.00 0.00 0.00 68 1016.3
20260505062003 60 173 0.0 1.7 0.00 0.00 0.00 68 1016.3
20260505061510 60 180 0.0 1.7 0.00 0.00 0.00 68 1016.4
20260505061006 60 165 0.0 2.6 0.00 0.00 0.00 67 1016.4
20260505060506 60 173 0.0 2.6 0.00 0.00 0.00 67 1016.5
20260505060012 60 173 0.0 2.6 0.00 0.00 0.00 67 1016.5
20260505055507 60 182 0.0 2.6 0.00 0.00 0.00 66 1016.5
20260505055007 61 168 0.0 2.6 0.00 0.00 0.00 67 1016.6
20260505054518 61 171 0.0 2.6 0.00 0.00 0.00 66 1016.6
20260505054011 61 162 0.0 2.6 0.00 0.00 0.00 66 1016.6
20260505053508 61 155 0.0 2.6 0.00 0.00 0.00 66 1016.5
20260505053021 61 170 0.0 2.6 0.00 0.00 0.00 65 1016.6
20260505052504 61 217 0.9 2.6 0.00 0.00 0.00 65 1016.6
20260505052006 61 175 0.9 1.7 0.00 0.00 0.00 65 1016.7
20260505051522 61 170 0.0 2.6 0.00 0.00 0.00 65 1016.8
20260505051004 62 175 0.9 2.6 0.00 0.00 0.00 64 1016.8
20260505050506 62 190 0.0 1.7 0.00 0.00 0.00 64 1016.9
20260505041527 63 190 0.9 3.5 0.00 0.00 0.00 62 1016.7
20260505041004 63 194 0.9 1.7 0.00 0.00 0.00 62 1016.7
20260505040504 63 171 0.0 1.7 0.00 0.00 0.00 62 1016.7
20260505040013 63 182 0.9 4.3 0.00 0.00 0.00 62 1016.7
20260505035505 63 161 0.9 4.3 0.00 0.00 0.00 61 1016.8
20260505035004 63 173 0.9 3.5 0.00 0.00 0.00 61 1016.8
20260505034516 63 227 0.9 2.6 0.00 0.00 0.00 61 1016.7
20260505034004 63 180 0.9 2.6 0.00 0.00 0.00 61 1016.8
20260505033506 64 169 0.9 3.5 0.00 0.00 0.00 61 1016.7
20260505033016 64 209 0.9 3.5 0.00 0.00 0.00 61 1016.8
20260505032508 64 167 0.0 4.3 0.00 0.00 0.00 61 1016.8
20260505032007 64 162 0.9 4.3 0.00 0.00 0.00 61 1016.8
20260505031523 64 175 0.9 4.3 0.00 0.00 0.00 61 1016.7
20260505031008 64 186 1.7 4.3 0.00 0.00 0.00 61 1016.7
20260505030509 64 188 1.7 7.8 0.00 0.00 0.00 61 1016.7
20260505030008 64 193 1.7 7.8 0.00 0.00 0.00 61 1016.8
20260505025507 64 194 1.7 4.3 0.00 0.00 0.00 61 1016.8
20260505025004 64 163 1.7 5.2 0.00 0.00 0.00 61 1016.8
20260505024514 64 169 1.7 5.2 0.00 0.00 0.00 60 1016.8
20260505024002 64 192 1.7 5.2 0.00 0.00 0.00 60 1016.8
20260505023504 64 186 1.7 5.2 0.00 0.00 0.00 60 1016.8
20260505023017 64 189 1.7 4.3 0.00 0.00 0.00 60 1016.8
20260505022504 65 178 1.7 4.3 0.00 0.00 0.00 60 1016.7
20260505022008 65 182 0.9 6.1 0.00 0.00 0.00 60 1016.7
20260505021518 65 189 1.7 6.1 0.00 0.00 0.00 60 1016.7
20260505021007 65 194 1.7 5.2 0.00 0.00 0.00 59 1016.7
20260505020507 65 182 0.9 4.3 0.00 0.00 0.00 59 1016.7
20260505020022 65 186 0.9 4.3 0.00 0.00 0.00 59 1016.7
20260505015512 66 187 0.9 5.2 0.00 0.00 0.00 58 1016.7
20260505015007 66 167 1.7 5.2 0.00 0.00 0.00 58 1016.7
20260505014507 66 165 1.7 4.3 0.00 0.00 0.00 58 1016.6
20260505014007 66 157 1.7 6.1 0.00 0.00 0.00 57 1016.6
20260505013504 67 174 0.9 4.3 0.00 0.00 0.00 57 1016.5
20260505013011 67 189 0.9 3.5 0.00 0.00 0.00 57 1016.4
20260505012504 67 173 0.9 3.5 0.00 0.00 0.00 57 1016.3
20260505012009 67 141 0.9 3.5 0.00 0.00 0.00 56 1016.3
20260505011518 68 144 0.9 3.5 0.00 0.00 0.00 55 1016.2
20260505011005 68 156 0.0 3.5 0.00 0.00 0.00 55 1016.2
20260505010508 68 180 0.9 7.8 0.00 0.00 0.00 55 1016.2
20260505010022 68 165 0.9 7.8 0.00 0.00 0.00 54 1016.2
20260505005507 68 162 0.9 5.2 0.00 0.00 0.00 54 1016.2
20260505005008 69 169 0.9 4.3 0.00 0.00 0.00 54 1016.0
20260505004525 69 146 0.9 4.3 0.00 0.00 0.00 53 1016.0
20260505004008 69 161 1.7 5.2 0.00 0.00 0.00 53 1015.9
20260505003507 69 205 0.9 6.1 0.00 0.00 0.00 53 1015.9
20260505003020 70 194 1.7 6.1 0.00 0.00 0.00 53 1015.8
20260505002504 70 164 1.7 7.0 0.00 0.00 0.00 52 1015.7
20260505002005 70 169 2.6 7.0 0.00 0.00 0.00 52 1015.7
20260505001516 71 170 1.7 6.1 0.00 0.00 0.00 52 1015.7
20260505001004 71 192 2.6 6.1 0.00 0.00 0.00 51 1015.7
20260505000506 71 131 1.7 8.7 0.00 0.00 0.00 51 1015.6
20260505000021 72 157 2.6 7.0 0.00 0.00 0.00 51 1015.6
20260504235508 72 178 2.6 6.1 0.00 0.00 0.00 50 1015.5
20260504235008 72 173 1.7 4.3 0.00 0.00 0.00 50 1015.5
20260504234524 73 157 2.6 9.6 0.00 0.00 0.00 50 1015.3
20260504234008 73 184 2.6 9.6 0.00 0.00 0.00 49 1015.3
20260504233507 74 184 2.6 6.1 0.00 0.00 0.00 49 1015.2
20260504233026 74 153 1.7 7.0 0.00 0.00 0.00 49 1015.1
20260504232512 74 159 3.5 10.4 0.00 0.00 0.00 48 1014.9
20260504232004 75 142 3.5 10.4 0.00 0.00 0.00 47 1014.9
20260504231510 75 178 2.6 8.7 0.00 0.00 0.00 45 1014.7
20260504231005 75 161 1.7 8.7 0.00 0.00 0.00 39 1014.7
20260504230506 75 156 0.9 5.2 0.00 0.00 0.00 37 1014.6
20260504230018 75 151 2.6 5.2 0.00 0.00 0.00 37 1014.6
20260504225511 75 159 1.7 7.8 0.00 0.00 0.00 36 1014.6
20260504225006 76 189 3.5 7.8 0.00 0.00 0.00 36 1014.5
20260504224522 76 188 1.7 3.5 0.00 0.00 0.00 36 1014.6
20260504224007 76 206 0.9 3.5 0.00 0.00 0.00 36 1014.6
20260504223022 76 171 2.6 5.2 0.00 0.00 0.00 36 1014.6
20260504222510 76 232 2.6 5.2 0.00 0.00 0.00 36 1014.6
20260504222011 76 202 1.7 4.3 0.00 0.00 0.00 36 1014.6
20260504221526 76 197 1.7 4.3 0.00 0.00 0.00 36 1014.6
20260504221004 76 230 1.7 4.3 0.00 0.00 0.00 35 1014.5
20260504220505 76 186 0.9 6.1 0.00 0.00 0.00 36 1014.5
20260504220014 77 213 1.7 6.1 0.00 0.00 0.00 35 1014.6
20260504215506 77 188 1.7 7.0 0.00 0.00 0.00 35 1014.6
20260504215008 77 148 1.7 7.0 0.00 0.00 0.00 35 1014.6
20260504214521 77 238 1.7 5.2 0.00 0.00 0.00 34 1014.6
20260504214009 77 188 1.7 6.1 0.00 0.00 0.00 35 1014.6
20260504213508 77 192 1.7 7.0 0.00 0.00 0.00 34 1014.6
20260504213024 77 226 2.6 7.0 0.00 0.00 0.00 35 1014.7
20260504212510 77 167 0.9 4.3 0.00 0.00 0.00 33 1014.8
20260504212009 77 189 1.7 5.2 0.00 0.00 0.00 34 1015.0
20260504211525 77 182 1.7 5.2 0.00 0.00 0.00 35 1014.9
20260504211007 78 171 2.6 7.8 0.00 0.00 0.00 34 1014.9
20260504210509 78 159 3.5 7.8 0.00 0.00 0.00 34 1014.8
20260504210032 78 178 3.5 6.1 0.00 0.00 0.00 34 1014.9
20260504205509 78 148 1.7 6.1 0.00 0.00 0.00 33 1014.9
20260504205007 78 188 0.9 3.5 0.00 0.00 0.00 34 1014.8
20260504204520 78 173 0.0 3.5 0.00 0.00 0.00 32 1014.9
20260504204010 79 209 1.7 3.5 0.00 0.00 0.00 32 1015.0
20260504203512 79 153 2.6 7.8 0.00 0.00 0.00 32 1015.0
20260504203029 79 190 1.7 7.8 0.00 0.00 0.00 31 1015.0
20260504202507 79 149 3.5 7.8 0.00 0.00 0.00 32 1015.0
20260504202010 79 235 1.7 3.5 0.00 0.00 0.00 32 1015.0
20260504201523 79 224 1.7 4.3 0.00 0.00 0.00 32 1015.0
20260504201018 80 167 0.0 5.2 0.00 0.00 0.00 31 1015.0
20260504200507 80 223 1.7 7.0 0.00 0.00 0.00 30 1015.1